Kezdőlap
METAR-TAF:

METAR-TAF

Repülőterek :

Rundu, Namíbia

földrajzi szélesség: 17-57-20S, földrajzi hosszúság: 019-43-25E, magasság: 1106 m

METAR: hiányzik

Idő: 03:10 (01:10 UTC)

Előrejelzés

A jelentés 2 órával és 10 perccel ezelõtt készült, 23:00 UTC
Az előrejelzés 23-én 00 óra UTC és 23-én 09 óra UTC között érvényes
Délkeleti szél 8 kt
Látótávolság 10 km, vagy több
felhőtlen 1500 m magasságban, és nincs gomolyfelhõ

TAF: FYRU 222300Z 2300/2309 13008KT CAVOK

Meteorológiai megfigyelések és előrejelzések több, mint 4000 repülőtéren (METAR és TAF jelentéseket).

A térképen piros és sárga pontok jelzik az elérhető meteorológiai állomásokat.

Mozgassa az egeret a pont fölött, hogy megjelenjen az állomás neve.

Azután kattintson az időjárási megfigyelések és előrejelzések megtekintéséhez.

A térkép megváltoztatása: kattintson a fekete keresztel jelölt zöld gombra ráközelítéshez, a vonallal jelölt zöld gombra távolításhoz, vagy a zöld nyilakra a szomszédos térképek eléréséhez.


METAR-TAF: